This demonstration page uses our WeatherBlox Daily Observations layout. Learn more.

Left ArrowRight Arrow

Hourly Observations for January 10, 2021

Temp ( °F °C ) Dew Point ( °F °C ) Humidity (%) Winds ( mph kmh ) Pressure ( in mb ) Visibility ( mi km ) Precip ( " mm )
12:01 am 00:01 Mostly Cloudy with Freezing Fog 19 -7.2 17 -8.3 92 92 E 3 6 30.39 1029 1 1 0.00 0.00
12:18 am 00:18 Mostly Cloudy with Freezing Fog 19 -7.2 17 -8.3 92 92 ESE 3 6 30.38 1029 0 0 0.00 0.00
12:53 am 00:53 Mostly Cloudy with Freezing Fog 19 -7.2 17 -8.3 92 92 ESE 5 7 30.31 1026 0 0 0.00 0.00
1:22 am 01:22 Mostly Cloudy with Freezing Fog 17 -8.3 15 -9.4 92 92 E 7 11 30.37 1029 1 1 0.00 0.00
1:33 am 01:33 Mostly Cloudy with Freezing Fog 17 -8.3 15 -9.4 92 92 E 6 9 30.37 1029 0 0 0.00 0.00
1:49 am 01:49 Mostly Cloudy with Freezing Fog 16 -9 14 -10 93 93 ESE 3 6 30.38 1029 1 1 0.00 0.00
1:53 am 01:53 Mostly Cloudy with Freezing Fog 16 -8.9 14 -10 92 92 ESE 5 7 30.30 1026 1 1 0.00 0.00
2:01 am 02:01 Mostly Cloudy with Freezing Fog 16 -8.9 14 -10 92 92 ESE 5 7 30.37 1028 0 0 0.00 0.00
2:44 am 02:44 Mostly Cloudy with Mist and Fog 16 -8.9 14 -10 92 92 E 5 7 30.36 1028 1 2 0.00 0.00
2:46 am 02:46 Mostly Cloudy with Mist and Fog 16 -8.9 13 -10.6 88 88 E 6 9 30.36 1028 3 5 0.00 0.00
2:53 am 02:53 Partly Cloudy 15 -9.4 13 -10.6 91 91 E 5 7 30.27 1025 10 16 0.00 0.00
3:04 am 03:04 Mostly Cloudy with Mist and Fog 15 -9.4 12 -11.1 88 88 E 7 11 30.36 1028 3 4 0.00 0.00
3:08 am 03:08 Mostly Cloudy with Mist and Fog 15 -9.4 13 -10.6 91 91 E 8 13 30.36 1028 1 2 0.00 0.00
3:43 am 03:43 Mostly Cloudy with Mist and Fog 15 -9.4 12 -11.1 88 88 Calm 30.35 1028 1 1 0.00 0.00
3:53 am 03:53 Mostly Cloudy with Mist and Fog 15 -9.4 12 -11.1 88 88 E 6 9 30.25 1024 1 2 0.00 0.00
4:15 am 04:15 Mostly Cloudy with Freezing Fog 14 -10 11 -11.7 88 88 ESE 3 6 30.34 1027 1 1 0.00 0.00
4:46 am 04:46 Cloudy with Mist and Fog 13 -10.6 10 -12.2 88 88 E 3 6 30.34 1027 2 2 0.00 0.00
4:53 am 04:53 Cloudy with Mist and Fog 13 -10.6 10 -12.2 88 88 Calm 30.24 1024 2 2 0.00 0.00
5:00 am 05:00 Mostly Cloudy with Mist and Fog 13 -10.6 11 -11.7 92 92 E 3 6 30.34 1027 1 2 0.00 0.00
5:32 am 05:32 Cloudy with Mist and Fog 12 -11.1 10 -12.2 92 92 E 3 6 30.32 1027 2 3 0.00 0.00
5:44 am 05:44 Cloudy with Mist and Fog 11 -11.7 8 -13.3 88 88 Calm 30.33 1027 1 2 0.00 0.00
5:53 am 05:53 Cloudy with Mist and Fog 9 -12.8 7 -13.9 92 92 Calm 30.23 1024 2 3 0.00 0.00
6:01 am 06:01 Mostly Cloudy with Mist and Fog 11 -11.7 8 -13.3 88 88 SE 3 6 30.33 1027 1 1 0.00 0.00
6:26 am 06:26 Mostly Cloudy with Freezing Fog 11 -11.7 9 -12.8 92 92 ESE 3 6 30.33 1027 0 0 0.00 0.00
6:36 am 06:36 Mostly Cloudy with Mist and Fog 10 -12.2 8 -13.3 92 92 SE 3 6 30.34 1027 1 1 0.00 0.00
6:40 am 06:40 Cloudy with Mist and Fog 10 -12.2 7 -13.9 87 87 ESE 3 6 30.33 1027 2 2 0.00 0.00
6:42 am 06:42 Cloudy with Mist and Fog 11 -11.7 7 -13.9 84 84 Calm 30.32 1027 3 5 0.00 0.00
6:53 am 06:53 Mostly Cloudy 10 -12.2 6 -14.4 84 84 ESE 5 7 30.22 1023 10 16 0.00 0.00
7:02 am 07:02 Partly Cloudy 10 -12.2 7 -13.9 87 87 ESE 5 7 30.33 1027 10 16 0.00 0.00
7:53 am 07:53 Clear 11 -11.7 7 -13.9 84 84 Calm 30.20 1023 10 16 0.00 0.00
8:53 am 08:53 Sunny 14 -10 10 -12.2 84 84 SW 9 15 30.19 1022 10 16 0.00 0.00
9:53 am 09:53 Sunny 23 -5 20 -6.7 88 88 SW 16 26 30.16 1021 10 16 0.00 0.00
10:53 am 10:53 Sunny 29 -1.7 25 -3.9 85 85 SW 20 31 30.14 1021 10 16 0.00 0.00
11:53 am 11:53 Sunny 30 -1.1 26 -3.3 85 85 WSW 16 26 30.13 1020 10 16 0.00 0.00
12:53 pm 12:53 Sunny 32 0 29 -1.7 88 88 WSW 16 26 30.11 1020 10 16 0.00 0.00
1:53 pm 13:53 Sunny 41 5 29 -1.7 62 62 WSW 16 26 30.09 1019 10 16 0.00 0.00
2:53 pm 14:53 Sunny 44 6.7 28 -2.2 53 53 SW 23 37 30.07 1018 10 16 0.00 0.00
3:53 pm 15:53 Sunny 44 6.7 26 -3.3 49 49 SW 20 31 30.07 1018 10 16 0.00 0.00
4:53 pm 16:53 Clear 42 5.6 25 -3.9 51 51 SW 21 33 30.09 1019 10 16 0.00 0.00
5:53 pm 17:53 Clear 36 2.2 24 -4.4 62 62 SW 14 22 30.11 1020 10 16 0.00 0.00
6:53 pm 18:53 Clear 38 3.3 24 -4.4 57 57 SW 18 30 30.12 1020 10 16 0.00 0.00
7:53 pm 19:53 Clear 37 2.8 23 -5 57 57 SW 20 31 30.13 1020 10 16 0.00 0.00
8:53 pm 20:53 Clear 36 2.2 22 -5.6 57 57 SW 20 31 30.13 1020 10 16 0.00 0.00
9:53 pm 21:53 Clear 35 1.7 21 -6.1 57 57 SW 16 26 30.14 1021 10 16 0.00 0.00
10:53 pm 22:53 Clear 34 1.1 21 -6.1 59 59 SW 17 28 30.15 1021 10 16 0.00 0.00
11:53 pm 23:53 Clear 33 0.6 20 -6.7 58 58 SW 16 26 30.15 1021 10 16 0.00 0.00

Powered by AerisWeather